CO3D 2
Last updated on Sun Jun 21 2026 00:02:53 GMT+0000 (Coordinated Universal Time)
1 64902U 25156D 26171.37975280 .00003283 00000+0 15474-3 0 9997
2 64902 97.4328 249.9261 0001570 106.6316 253.5091 15.20193266 50011
Next 0 passes for location: London (51.5072 / 0.1276)
No passes found over London.